Weather History for Roxboro, NC

Change the Weather History Date:

Friday, November 8, 2013

  Actual Average Record
Temperature  
Mean Temperature 40 °F -  
Max Temperature 53 °F 61 °F 80 °F (2001)
Min Temperature 28 °F 36 °F 20 °F (1967)
Degree Days  
Heating Degree Days 24    
Moisture  
Dew Point 27 °F    
Average Humidity 59    
Maximum Humidity 93    
Minimum Humidity 30    
Precipitation  
Precipitation 0.00 in - - ()
Sea Level Pressure  
Sea Level Pressure 30.27 in    
Wind  
Wind Speed 4 mph (NW)    
Max Wind Speed 12 mph    
Max Gust Speed 21 mph    
Visibility 10 miles    
Events      
Averages and records for this station are not official NWS values.
T = Trace of Precipitation, MM = Missing Value Source: NWS Daily Summary

Daily Weather History Graph

Daily Weather History Graph

Search for Another Location

Airport:

Trip Planner

Search our weather history database for the weather conditions in past years. The results will help you decide how hot, cold, wet, or windy it might be!

Date:

Astronomy

Nov. 08, 2013 Rise Set
Actual Time 6:46 AM EST 5:12 PM EST
Civil Twilight 6:19 AM EST 5:39 PM EST
Nautical Twilight 5:48 AM EST 6:10 PM EST
Astronomical Twilight 5:18 AM EST 6:40 PM EST
Moon 11:40 AM EST (11/8) 10:31 PM EST (11/8)
Length of Visible Light 11h 20m
Length of Day
10h 26m
Waxing Crescent, 33% of the Moon is Illuminated
Nov 8
Waxing Crescent
Nov 10
First Quarter
Nov 17
Full
Nov 25
Last Quarter
Dec 2
New

Hourly Weather History & Observations

Time (EST) Temp. Windchill Dew Point Humidity Pressure Visibility Wind Dir Wind Speed Gust Speed Precip Events Conditions
12:15 AM 42.8 °F - 32.0 °F 66% 30.14 in 10.0 mi Calm Calm - N/A   Clear
12:35 AM 42.8 °F 40.1 °F 32.0 °F 66% 30.14 in 10.0 mi NW 4.6 mph - N/A   Clear
12:55 AM 42.8 °F 39.3 °F 32.0 °F 66% 30.15 in 10.0 mi NW 5.8 mph - N/A   Clear
1:15 AM 41.0 °F 38.0 °F 32.0 °F 70% 30.16 in 10.0 mi NNW 4.6 mph - N/A   Clear
1:35 AM 41.0 °F 38.0 °F 32.0 °F 70% 30.16 in 10.0 mi NW 4.6 mph - N/A   Clear
1:55 AM 42.8 °F 37.5 °F 30.2 °F 61% 30.17 in 10.0 mi NW 9.2 mph - N/A   Clear
2:15 AM 42.8 °F 39.3 °F 28.4 °F 57% 30.19 in 10.0 mi NW 5.8 mph - N/A   Clear
2:35 AM 41.0 °F 38.0 °F 28.4 °F 61% 30.19 in 10.0 mi NNW 4.6 mph - N/A   Clear
2:55 AM 41.0 °F 37.1 °F 28.4 °F 61% 30.20 in 10.0 mi NW 5.8 mph - N/A   Clear
3:15 AM 41.0 °F 37.1 °F 26.6 °F 57% 30.21 in 10.0 mi NNW 5.8 mph - N/A   Clear
3:35 AM 41.0 °F 37.1 °F 26.6 °F 57% 30.21 in 10.0 mi NNW 5.8 mph - N/A   Clear
3:55 AM 41.0 °F 38.0 °F 26.6 °F 57% 30.22 in 10.0 mi NNW 4.6 mph - N/A   Clear
4:15 AM 41.0 °F 38.0 °F 26.6 °F 57% 30.22 in 10.0 mi NNW 4.6 mph - N/A   Clear
4:35 AM 41.0 °F 38.0 °F 24.8 °F 53% 30.23 in 10.0 mi NNW 4.6 mph - N/A   Clear
4:55 AM 41.0 °F - 26.6 °F 57% 30.23 in 10.0 mi Calm Calm - N/A   Clear
5:15 AM 39.2 °F - 26.6 °F 61% 30.24 in 10.0 mi Calm Calm - N/A   Clear
5:35 AM 35.6 °F - 26.6 °F 70% 30.24 in 10.0 mi Calm Calm - N/A   Clear
5:55 AM 33.8 °F - 28.4 °F 81% 30.24 in 10.0 mi Calm Calm - N/A   Clear
6:15 AM 32.0 °F - 28.4 °F 87% 30.25 in 10.0 mi Calm Calm - N/A   Clear
6:35 AM 32.0 °F - 28.4 °F 87% 30.25 in 10.0 mi Calm Calm - N/A   Clear
6:55 AM 30.2 °F - 28.4 °F 93% 30.26 in 10.0 mi Calm Calm - N/A   Clear
7:15 AM 32.0 °F - 28.4 °F 87% 30.26 in 10.0 mi Calm Calm - N/A   Clear
7:35 AM 32.0 °F - 30.2 °F 93% 30.27 in 10.0 mi Calm Calm - N/A   Clear
7:55 AM 33.8 °F - 32.0 °F 93% 30.28 in 10.0 mi Calm Calm - N/A   Clear
8:15 AM 39.2 °F - 32.0 °F 75% 30.29 in 10.0 mi Calm Calm - N/A   Clear
8:35 AM 42.8 °F - 30.2 °F 61% 30.29 in 10.0 mi Calm Calm - N/A   Clear
8:55 AM 44.6 °F - 30.2 °F 57% 30.29 in 10.0 mi Calm Calm - N/A   Clear
9:15 AM 46.4 °F 42.9 °F 28.4 °F 50% 30.29 in 10.0 mi NW 6.9 mph - N/A   Clear
9:35 AM 48.2 °F - 28.4 °F 46% 30.30 in 10.0 mi NNW 6.9 mph - N/A   Clear
9:55 AM 50.0 °F - 28.4 °F 43% 30.30 in 10.0 mi Calm Calm - N/A   Clear
10:15 AM 50.0 °F - 26.6 °F 40% 30.30 in 10.0 mi NNW 10.4 mph 16.1 mph N/A   Clear
10:35 AM 51.8 °F - 26.6 °F 38% 30.29 in 10.0 mi NNW 8.1 mph - N/A   Clear
10:55 AM 51.8 °F - 26.6 °F 38% 30.30 in 10.0 mi NNW 9.2 mph - N/A   Clear
11:15 AM 51.8 °F - 26.6 °F 38% 30.29 in 10.0 mi NNW 8.1 mph - N/A   Clear
11:35 AM 51.8 °F - 26.6 °F 38% 30.28 in 10.0 mi NNW 9.2 mph 17.3 mph N/A   Clear
11:55 AM 51.8 °F - 26.6 °F 38% 30.27 in 10.0 mi WNW 5.8 mph - N/A   Clear
12:15 PM 51.8 °F - 26.6 °F 38% 30.27 in 10.0 mi West 5.8 mph - N/A   Clear
12:35 PM 53.6 °F - 24.8 °F 33% 30.26 in 10.0 mi NNW 11.5 mph 20.7 mph N/A   Clear
12:55 PM 53.6 °F - 24.8 °F 33% 30.26 in 10.0 mi WNW 6.9 mph 17.3 mph N/A   Clear
1:15 PM 53.6 °F - 24.8 °F 33% 30.25 in 10.0 mi NW 10.4 mph 18.4 mph N/A   Clear
1:35 PM 53.6 °F - 26.6 °F 35% 30.25 in 10.0 mi WNW 5.8 mph - N/A   Clear
1:55 PM 53.6 °F - 24.8 °F 33% 30.24 in 10.0 mi West 10.4 mph 17.3 mph N/A   Clear
2:15 PM 53.6 °F - 24.8 °F 33% 30.25 in 10.0 mi NNW 9.2 mph 17.3 mph N/A   Clear
2:35 PM 53.6 °F - 24.8 °F 33% 30.25 in 10.0 mi NNW 6.9 mph - N/A   Clear
2:55 PM 53.6 °F - 23.0 °F 30% 30.25 in 10.0 mi NNW 5.8 mph - N/A   Clear
3:15 PM 53.6 °F - 24.8 °F 33% 30.25 in 10.0 mi NNW 5.8 mph - N/A   Clear
3:35 PM 53.6 °F - 24.8 °F 33% 30.25 in 10.0 mi NW 4.6 mph - N/A   Clear
3:55 PM 53.6 °F - 24.8 °F 33% 30.25 in 10.0 mi NNW 6.9 mph - N/A   Clear
4:15 PM 51.8 °F - 23.0 °F 33% 30.26 in 10.0 mi NW 4.6 mph - N/A   Clear
4:35 PM 51.8 °F - 24.8 °F 35% 30.26 in 10.0 mi WNW 4.6 mph - N/A   Clear
4:55 PM 50.0 °F - 23.0 °F 35% 30.27 in 10.0 mi Calm Calm - N/A   Clear
5:15 PM 48.2 °F - 23.0 °F 37% 30.27 in 10.0 mi NNW 5.8 mph - N/A   Clear
5:35 PM 48.2 °F - 23.0 °F 37% 30.28 in 10.0 mi NNE 3.5 mph - N/A   Clear
5:55 PM 44.6 °F 41.4 °F 23.0 °F 43% 30.29 in 10.0 mi NNW 5.8 mph - N/A   Clear
6:15 PM 44.6 °F - 23.0 °F 43% 30.30 in 10.0 mi Calm Calm - N/A   Clear
6:35 PM 44.6 °F - 23.0 °F 43% 30.30 in 10.0 mi Calm Calm - N/A   Clear
6:55 PM 41.0 °F - 24.8 °F 53% 30.30 in 10.0 mi Calm Calm - N/A   Clear
7:15 PM 37.4 °F - 26.6 °F 65% 30.30 in 10.0 mi Calm Calm - N/A   Clear
7:35 PM 37.4 °F - 28.4 °F 70% 30.30 in 10.0 mi Calm Calm - N/A   Clear
7:55 PM 35.6 °F - 28.4 °F 75% 30.31 in 10.0 mi Calm Calm - N/A   Clear
8:15 PM 33.8 °F 30.8 °F 28.4 °F 81% 30.32 in 10.0 mi South 3.5 mph - N/A   Clear
8:35 PM 32.0 °F - 28.4 °F 87% 30.32 in 10.0 mi Calm Calm - N/A   Clear
8:55 PM 32.0 °F - 28.4 °F 87% 30.32 in 10.0 mi Calm Calm - N/A   Clear
9:15 PM 32.0 °F - 28.4 °F 87% 30.33 in 10.0 mi Calm Calm - N/A   Clear
9:35 PM 32.0 °F - 28.4 °F 87% 30.33 in 10.0 mi Calm Calm - N/A   Clear
9:55 PM 30.2 °F - 28.4 °F 93% 30.33 in 10.0 mi Calm Calm - N/A   Clear
10:15 PM 32.0 °F - 28.4 °F 87% 30.34 in 10.0 mi Calm Calm - N/A   Clear
10:35 PM 30.2 °F - 28.4 °F 93% 30.34 in 10.0 mi Calm Calm - N/A   Clear
10:55 PM 30.2 °F - 28.4 °F 93% 30.34 in 10.0 mi Calm Calm - N/A   Clear
11:15 PM 28.4 °F - 26.6 °F 93% 30.34 in 10.0 mi Calm Calm - N/A   Clear
11:35 PM 30.2 °F - 28.4 °F 93% 30.35 in 10.0 mi Calm Calm - N/A   Clear
11:55 PM 30.2 °F - 28.4 °F 93% 30.35 in 10.0 mi Calm Calm - N/A   Clear